Location: Dalton
(34.7700°N, 84.9700°W)
Time: 20:41:55
(UTC-04:00)

Hubble Space Telescope - Pass Details

Date: 08 October 2017
Orbit: 537 x 541 km, 28.5° (Epoch: 22 October)

Event Time Altitude Azimuth Distance (km) Brightness Sun altitude
Exits shadow 07:02:33 - 249° (WSW) 1,865 2.9 -8.5°
Reaches altitude 10° 07:02:48 10° 247° (WSW) 1,788 2.9 -8.5°
Maximum altitude 07:06:02 22° 195° (SSW) 1,190 2.4 -7.8°
Drops below altitude 10° 07:09:17 10° 143° (SE) 1,786 4.0 -7.2°
Sets 07:11:54 0° 128° (SE) 2,676 5.3 -6.6°
